Overview Statistics Trail Chart Weather Telemetry Raw packets
 

This is the latest recevied weather packets stored in our database for station/object DH9SB-6. If no packets are shown the sender has not sent any weather packets the latest 10 day(s).

<< 2 3 4 5 6 7 8 >>
Time Temp. Humidity Pressure Rain* Wind** Luminosity Snow
1788114777 21.11° C 64% - 0 mm - - -
1788114153 21.67° C 62% - 0 mm - - -
1788113577 22.22° C 61% - 0 mm - - -
1788112953 22.22° C 61% - 0 mm - - -
1788112377 22.78° C 57% - 0 mm - - -
1788111753 22.78° C 56% - 0 mm - - -
1788111177 23.33° C 55% - 0 mm - - -
1788110554 23.89° C 54% - 0 mm - - -
1788109979 23.89° C 53% - 0 mm - - -
1788109356 24.44° C 53% - 0 mm - - -
1788108777 23.89° C 52% - 0 mm - - -
1788108154 24.44° C 52% - 0 mm - - -
1788107578 24.44° C 51% - 0 mm - - -
1788106952 25° C 50% - 0 mm - - -
1788106377 25.56° C 50% - 0 mm - - -
1788105753 25.56° C 50% - 0 mm - - -
1788105177 26.11° C 49% - 0 mm - - -
1788104553 26.11° C 49% - 0 mm - - -
1788103976 26.11° C 48% - 0 mm - - -
1788103354 27.22° C 47% - 0 mm - - -
1788102779 27.22° C 45% - 0 mm - - -
1788102153 27.22° C 44% - 0 mm - - -
1788101578 27.22° C 46% - 0 mm - - -
1788100955 27.22° C 46% - 0 mm - - -
1788100376 26.67° C 47% - 0 mm - - -

* Rain latest hour (hover to see other rain measurements)
** Current wind speed in m/s (hover to see current wind gust speed)